Location: Penton Mewsey
(51.2167°N, 1.5167°W)
Time: 23:03:30
(UTC+00:00)

Envisat - Pass Details

Date: 07 March 2021
Orbit: 764 x 766 km, 98.1° (Epoch: 22 April)

Event Time Altitude Azimuth Distance (km) Brightness Sun altitude
Rises 04:09:23 0° 31° (NNE) 3,246 7.1 -23.6°
Reaches altitude 10° 04:13:35 10° 65° (ENE) 2,311 6.6 -23.0°
Maximum altitude 04:15:12 11° 83° (E) 2,212 6.4 -22.8°
Drops below altitude 10° 04:16:48 10° 102° (ESE) 2,305 6.2 -22.5°
Sets 04:20:57 0° 136° (SE) 3,223 6.6 -21.9°
